User: anonymous   Login
Location: Unspecified
(0.0000°N, 0.0000°E)
Time: 03:32:25
(UTC+02:00)
Language:

H-2A R/B - Orbit

View from above orbital plane
View from above orbital plane
View from above satellite
View from above satellite

Ground track
Ground track

The orbit data is extracted from the following two-line orbital elements,

1 26899U 01038B   17112.25532651 +.00004440 +00000-0 +90000-3 0  9991
2 26899 028.1215 087.5951 7131877 151.5926 280.2704 02.47756618135124
Epoch (UTC): 22 April 2017 06:07:40
Eccentricity: 0.7131877
inclination: 28.1215°
perigee height: 238 km
apogee height: 33145 km
right ascension of ascending node: 87.5951°
argument of perigee: 151.5926°
revolutions per day: 2.47756618
mean anomaly at epoch: 280.2704°
orbit number at epoch: 13512

The dashed part of the orbit path shows where the satellite is in the earth's shadow,  

DLR